This demonstration page uses our WeatherBlox Daily Observations layout. Learn more.

Left ArrowRight Arrow

44.89941, -97.11507

Hourly Observations for July 14, 2020

Temp ( °F °C ) Dew Point ( °F °C ) Humidity (%) Winds ( mph kmh ) Pressure ( in mb ) Visibility ( mi km ) Precip ( " mm )
12:53 am 00:53 Clear 68 20 64 17.8 87 87 Calm 29.79 1009 10 16 0.00 0.00
1:53 am 01:53 Clear 68 20 63 17.2 84 84 Calm 29.79 1009 10 16 0.00 0.00
2:53 am 02:53 Clear 67 19.4 64 17.8 91 91 NW 6 9 29.81 1009 10 16 0.00 0.00
3:53 am 03:53 Partly Cloudy 67 19.4 59 15 76 76 NNE 9 15 29.80 1009 10 16 0.00 0.00
4:53 am 04:53 Cloudy 67 19.4 54 12.2 63 63 N 8 13 29.88 1012 10 16 0.00 0.00
5:53 am 05:53 Cloudy with Light Rain 63 17.2 55 12.8 76 76 N 15 24 29.88 1012 10 16 0.03 0.76
6:03 am 06:03 Cloudy 62 16.7 55 12.8 78 78 N 10 17 29.90 1012 10 16 0.00 0.00
6:53 am 06:53 Cloudy 63 17.2 56 13.3 78 78 NNW 9 15 29.88 1012 10 16 0.00 0.00
7:53 am 07:53 Cloudy 62 16.7 55 12.8 78 78 NNW 18 30 29.93 1013 10 16 0.00 0.00
8:53 am 08:53 Cloudy 60 15.6 55 12.8 84 84 NNW 6 9 29.96 1014 10 16 0.06 1.52
9:53 am 09:53 Cloudy 60 15.6 55 12.8 84 84 NE 3 6 29.95 1014 10 16 0.01 0.25
10:53 am 10:53 Cloudy 61 16.1 56 13.3 84 84 ESE 5 7 29.91 1013 10 16 0.01 0.25
11:53 am 11:53 Sunny 65 18.3 54 12.2 68 68 Calm 29.96 1015 10 16 0.00 0.00
12:53 pm 12:53 Partly Cloudy 69 20.6 56 13.3 63 63 NW 7 11 29.98 1015 10 16 0.00 0.00
1:53 pm 13:53 Partly Cloudy 71 21.7 57 13.9 61 61 NW 13 20 29.97 1015 10 16 0.00 0.00
2:53 pm 14:53 Mostly Sunny 69 20.6 55 12.8 61 61 NW 8 13 29.98 1015 10 16 0.00 0.00
3:53 pm 15:53 Sunny 71 21.7 56 13.3 59 59 WNW 7 11 29.98 1015 10 16 0.00 0.00
4:53 pm 16:53 Mostly Sunny 73 22.8 56 13.3 55 55 WNW 6 9 29.98 1015 10 16 0.00 0.00
5:53 pm 17:53 Sunny 73 22.8 55 12.8 53 53 VRB 5 7 29.98 1015 10 16 0.00 0.00
6:53 pm 18:53 Sunny 73 22.8 53 11.7 50 50 W 6 9 29.99 1016 10 16 0.00 0.00
7:53 pm 19:53 Sunny 72 22.2 54 12.2 53 53 WSW 5 7 29.99 1016 10 16 0.00 0.00
8:53 pm 20:53 Sunny 67 19.4 56 13.3 68 68 SW 6 9 29.99 1016 10 16 0.00 0.00
9:53 pm 21:53 Clear 63 17.2 56 13.3 78 78 SW 6 9 30.01 1016 10 16 0.00 0.00
10:53 pm 22:53 Clear 62 16.7 57 13.9 84 84 SW 7 11 30.01 1016 10 16 0.00 0.00
11:53 pm 23:53 Clear 60 15.6 57 13.9 90 90 WSW 6 9 30.03 1017 10 16 0.00 0.00

Powered by AerisWeather